Showing default

IRIDIUM 180, 43922

Orbit data source: Space-Track

IRIDIUM 180, 43922 is a payload satellite owned by Iridium (US) in LEO that was launched on Fri, 11 Jan 2019 UTC via an FALCON 9 launch vehicle from the Air Force Western Test Range (AFWTR). Payload-class satellites include a variety of spacecraft equipped with specific instruments for various scientific and technological missions. These include communications satellites like Starlink; space stations such as the ISS; scientific satellites like the Hubble; Earth observation satellites from companies like Planet Labs, Umbra, and HawkEye 360; GPS; miniature CubeSats for education and research; and military/defense satellites.

Loading next visibility...
Identifier
43922, 2019-002A
Orbit
LEO
Country
Flag of USUS
Related business
Manufacturer
NGIS SSG Gilbert
Mission
Operational Commercial Communications
Bus & Motor
ELITEBUS, Unknown motor
Mass
860 kg wet, 700 kg dry
Launch date (UTC)
2019-01-11 (7 years ago)
Launch vehicle
FALCON 9
Launch site
Air Force Western Test Range (AFWTR)
Object type
Payload
Rocket body
Debris
Shape & HBR
Trap Box + 2 Pan, 4.8 m
Radar Cross Section
10.154 m², Large (>1 m²)

Expand to show TLE details & history
Last TLE update: 16 hours ago

TLE from 16 hours ago
0 IRIDIUM 180
1 43922U 19002A   25347.27262639  .00000115  00000-0  33848-4 0  9997
2 43922  86.3966  71.3182 0001995  92.5210 267.6215 14.34218195362340
Epoch: 2025-12-13T06:32Z
TLE epoch observation values (Epoch: 2025-12-13T06:32:34.920Z)
Latitude
0.00008°
Longitude
-109.02957°
Altitude
780.776 km
Speed
7.463 km/s
True Right ascension
04h 45m 16s
True Declination
0° 00' 00"
Sunlit
Object was in full shadow at epoch
Visualization orbit readout
Latitude
Unknown
Longitude
Unknown
Altitude
Unknown
Speed
Unknown
Apparent Right ascension
Unknown
Apparent Declination
Unknown
Sunlit
N/A
Visualization observer readout
Local Sidereal Time
21:00:33
Azimuth
Unknown
Elevation
Unknown
Doppler factor
Unknown
Orbital elements
Apogee altitude
776.057 km
Perigee altitude
773.203 km
Semi-major axis
7,152.767 km
Eccentricity
0.0002
Inclination
86.3966°
RAAN
71.3182°
Arg. of periapsis
92.521°
True anomaly
267.59866°
Mean anomaly
267.6215°
Eccentric anomaly
267.61008°
Mean motion
3.58783 °/min
Orbital period
100.34 mins
BSTAR
0.000033848
Loading maneuver chart data...
Computing Atmospheric mass density...
Loading historical data...
Loading historical data...
Loading historical data...
Loading historical data...
Loading historical data...
Loading historical data...
Loading historical data...

Documentation

Showing up to 5 results
|